Tucson, Arizona, United States (85701)
Lat: 32.22N, Lon: 110.93W
Wx Zone: AZZ504
Local Info
Past Weather Observations for Sunday, March 1, 2015

NOTE: This archive is for the closest National Weather Service station to Tucson. Information may differ from the station used for current weather conditions.

Click here for Long-term Archive

Time Weather Temperature Dewpoint Humidity Pressure Winds Precip Visibility
23:58
Partly Cloudy
61°F / 16°C 45°F / 7°C 55% 30.01 in
(1016 mb)
SE 5.8 mph
(SE 9 kph)
- 10SM
22:58
Mostly Cloudy
63°F / 17°C 45°F / 7°C 52% 30.01 in
(1016 mb)
S 5.8 mph
(S 9 kph)
- 10SM
21:58
Mostly Cloudy
64°F / 18°C 45°F / 7°C 49% 30.01 in
(1016 mb)
SW 11.5 mph
(SW 19 kph)
- 10SM
20:58
Partly Cloudy
64°F / 18°C 43°F / 6°C 46% 30.01 in
(1016 mb)
SW 10.4 mph
(SW 17 kph)
- 10SM
19:58
Clear
66°F / 19°C 41°F / 5°C 40% 29.98 in
(1015 mb)
SW 11.5 mph
(SW 19 kph)
- 10SM
18:58
Partly Cloudy
68°F / 20°C 43°F / 6°C 40% 29.98 in
(1015 mb)
SW 10.4 mph
(SW 17 kph)
- 10SM
17:58
Clear
70°F / 21°C 43°F / 6°C 38% 29.95 in
(1014 mb)
SSW 13.8 mph
(SSW 22 kph)
- 9SM
16:58
Clear
73°F / 23°C 41°F / 5°C 31% 29.95 in
(1014 mb)
SW 20.7 mph
(SW 33 kph)
- 9SM
15:58
Clear
75°F / 24°C 41°F / 5°C 29% 29.92 in
(1013 mb)
SW 18.4 mph
(SW 30 kph)
- 8SM
15:35
Clear
75°F / 24°C 39°F / 4°C 27% 29.92 in
(1013 mb)
SSE 12.7 mph
(SSE 20 kph)
- 8SM
15:05
Clear
75°F / 24°C 39°F / 4°C 27% 29.92 in
(1013 mb)
SSW 13.8 mph
(SSW 22 kph)
- 10SM
14:58
Clear
75°F / 24°C 39°F / 4°C 27% 29.95 in
(1014 mb)
SW 18.4 mph
(SW 30 kph)
- 10SM
13:58
Clear
73°F / 23°C 39°F / 4°C 29% 29.95 in
(1014 mb)
S 16.1 mph
(S 26 kph)
- 10SM
13:38
Clear
73°F / 23°C 39°F / 4°C 29% 29.95 in
(1014 mb)
SSW 11.5 mph
(SSW 19 kph)
- 10SM
13:26
Clear
73°F / 23°C 39°F / 4°C 29% 29.95 in
(1014 mb)
SSW 15 mph
(SSW 24 kph)
- 10SM
12:58
Clear
73°F / 23°C 37°F / 3°C 27% 29.98 in
(1015 mb)
SW 11.5 mph
(SW 19 kph)
- 10SM
11:58
Clear
70°F / 21°C 39°F / 4°C 33% 30.01 in
(1016 mb)
Variable 5.8 mph
(Variable 9 kph)
- 10SM
10:58
Clear
66°F / 19°C 39°F / 4°C 37% 30.04 in
(1017 mb)
S 5.8 mph
(S 9 kph)
- 9SM
09:58
Partly Cloudy
63°F / 17°C 37°F / 3°C 39% 30.04 in
(1017 mb)
S 1.2 mph
(S 2 kph)
- 10SM
08:58
Clear
61°F / 16°C 39°F / 4°C 45% 30.04 in
(1017 mb)
SE 3.5 mph
(SE 6 kph)
- 10SM
07:58
Clear
55°F / 13°C 37°F / 3°C 51% 30.01 in
(1016 mb)
SE 5.8 mph
(SE 9 kph)
- 10SM
06:58
Clear
52°F / 11°C 39°F / 4°C 62% 30.01 in
(1016 mb)
SE 6.9 mph
(SE 11 kph)
- 10SM
05:58
Clear
54°F / 12°C 41°F / 5°C 63% 29.98 in
(1015 mb)
SE 8.1 mph
(SE 13 kph)
- 10SM
04:58
Partly Cloudy
55°F / 13°C 43°F / 6°C 63% 29.98 in
(1015 mb)
SE 11.5 mph
(SE 19 kph)
- 10SM
03:58
Mostly Cloudy
54°F / 12°C 45°F / 7°C 72% 29.98 in
(1015 mb)
ESE 9.2 mph
(ESE 15 kph)
- 10SM
02:58
Partly Cloudy
54°F / 12°C 45°F / 7°C 72% 29.98 in
(1015 mb)
E 5.8 mph
(E 9 kph)
- 10SM
01:58
Mostly Cloudy
54°F / 12°C 45°F / 7°C 72% 29.98 in
(1015 mb)
E 8.1 mph
(E 13 kph)
- 10SM
00:58
Partly Cloudy
54°F / 12°C 45°F / 7°C 72% 29.98 in
(1015 mb)
SE 4.6 mph
(SE 7 kph)
- 10SM
Time Weather Temperature Dewpoint Humidity Pressure Winds Precip Visibility


Weather for websites

WeatherForYou.com, LLC is not responsible for any damages or problems caused by this service. Current weather conditions are obtained from the closest station including government and personal stations which may have varying degrees of accuracy. Weather forecasts are derived from the NOAA NDFD. Like all things, this site belongs to Jesus Christ... He just trusts me to maintain it. If you have any questions or comments email webmaster@weatherforyou.com

Copyright © 2015, WeatherForYou.com LLC. All rights reserved.